Regional Weather Roundup
Issued by NWS Goodland, KS

Home | Current Version | Previous Version | Graphics & Text | Print | Product List | Glossary On
Versions: 1 2 3 4 5 6 7 8 9 10 11 12 13 14 15 16 17 18 19 20 21 22 23 24 25 26 27 28 29 30 31 32 33 34 35 36 37 38 39 40 41 42 43 44 45 46 47 48 49 50
000
ASUS43 KGLD 272208
RWRGLD

GOODLAND FORECAST AREA HOURLY WEATHER ROUNDUP
NATIONAL WEATHER SERVICE GOODLAND KS
300 PM MST THU NOV 27 2014

...OFFICIAL OBSERVATIONS...

CITY           SKY/WX    TMP DP  RH WIND       PRES   REMARKS
GOODLAND KS    MOSUNNY   63  24  22 SW13      30.07F
HILL CITY KS   PTSUNNY   52  23  32 S8        30.13F
IMPERIAL NEB   MOSUNNY   62  30  29 SW7       30.04F
MCCOOK NEB     MOSUNNY   55  25  31 SE13G20   30.06F
AKRON CO       CLOUDY    52  29  41 W10       30.08F
BURLINGTON CO  PTSUNNY   60  23  24 SW13      30.10S
LIMON CO       CLOUDY    61  16  17 NW9       30.14S
$$

...UNOFFICIAL OBSERVATIONS...

CITY           SKY/WX    TMP DP  RH WIND       PRES   REMARKS
COLBY KS       SUNNY     61  34  36 S9G17     30.08S
GOVE KS          N/A     57  32  39 MISG        N/A
NORTON KS      SUNNY     48  18  29 SE9       30.10F
SHARON SPRINGS   N/A     58  25  28 N13G20      N/A
TRIBUNE KS     MOSUNNY   59  36  41 S10       30.14S
TRENTON NEB      N/A     56  32  40 E12         N/A
YUMA CO          N/A     56  37  48 CALM        N/A
$$



USA.gov is the U.S. government's official web portal to all federal, state and local government web resources and services.